Skip Page Navigation
NASA JPL Caltech
NASA Logo - Jet Propulsion Laboratory + View the NASA Portal
+ Center for Near-Earth Object Studies
JPL Home Earth Solar System Stars & Galaxies Technology
JPL Solar System Dynamics
BODIES ORBITS EPHEMERIDES TOOLS PHYSICAL DATA DISCOVERY FAQ SITE MAP
JPL Small-Body Database Browser
Search: [ help ]  
266129 (2006 TJ36)
Classification: Main-belt Asteroid          SPK-ID: 2266129
Ephemeris | Orbit Diagram | Orbital Elements | Mission Design | Physical Parameters | Discovery Circumstances ]

[ show orbit diagram ]
Orbital Elements at Epoch 2459000.5 (2020-May-31.0) TDB
Reference: JPL 13 (heliocentric ecliptic J2000)
 Element Value Uncertainty (1-sigma)   Units 
e .1367386083176236 4.2368e-08  
a 2.326227491757148 1.5061e-08 au
q 2.008142381904079 9.9761e-08 au
i 10.51765109119146 5.4779e-06 deg
node 32.04619593911328 2.6591e-05 deg
peri 94.74997629898314 3.4492e-05 deg
M 227.4575756447131 2.0075e-05 deg
tp 2459477.621637360927
(2021-Sep-20.12163736)
7.2909e-05 TDB
period 1295.915555230165
3.55
1.2586e-05
3.446e-08
d
yr
n .277795878402016 2.6979e-09 deg/d
Q 2.644312601610217 1.712e-08 au
  Orbit Determination Parameters
   # obs. used (total)      269  
   data-arc span      6651 days (18.21 yr)  
   first obs. used      1999-11-10  
   last obs. used      2018-01-25  
   planetary ephem.      DE431  
   SB-pert. ephem.      SB431-N16  
   condition code      0  
   norm. resid. RMS      .62426  
   source      ORB  
   producer      Otto Matic  
   solution date      2018-Feb-06 08:44:46  

Additional Information
 Earth MOID = 1.05477 au 
 Jupiter MOID = 2.45242 au 
 T_jup = 3.539 
[ show covariance matrix ]

Ephemeris | Orbit Diagram | Orbital Elements | Mission Design | Physical Parameters | Discovery Circumstances ]

Physical Parameter Table
Parameter Symbol Value Units Sigma Reference Notes
absolute magnitude H 16.8   n/a MPO437226  

266129 (2006 TJ36)          Discovered 2006-Oct-12 by Spacewatch at Kitt Peak
Reference: 20110218/Numbers.arcLast Updated: 2011-02-22

Alternate Designations
 2006 TJ36 = 2004 CO57 
Ephemeris | Orbit Diagram | Orbital Elements | Mission Design | Physical Parameters | Discovery Circumstances ]
ABOUT SSD CREDITS/AWARDS PRIVACY/COPYRIGHT GLOSSARY LINKS
FirstGov 2020-Jul-03 20:11 UT
(server date/time)  
NASA Home Page
Site Manager:   Ryan S. Park
Webmaster  Alan B. Chamberlin